STARLINK-5876 (56321 NORAD) Tracking and Keplerian Element Data

This shows tracking and keplerian element data for the satellite.

Feedback or suggestion? Click here.




ElementValue
Catalog56321
NameSTARLINK-5876
Epoch Orbit5654
Epoch Day126.01044794
Epoch Year2024
RAAN127.4254
Inclination97.6524
Eccentricity0.0003239
Argument of Perigee98.3915
Mean Anonmoly261.7677
Mean Motion15.01274404
Decay Rate6.57E-05
L11 56321U 23058E 24126.01044794 .00006570 00000+0 51536-3 0 9999
L22 56321 97.6524 127.4254 0003239 98.3915 261.7677 15.01274404 56543



Live tracking and technical data element details for STARLINK-5876 (NORAD 56321). STARLINK-5876 can be tracked NOW for your location showing map with azimuth and elevation plus other details from your city location.







IsCatalogInMostPopularTable: catalog: 56321, numindb: 17
Update: records affected: 1



GetName: 56321 STARLINK-5876

Hit Count: updated at: Thu, 30 May 2024 16:08:52 GMT